Gold Coast Seaway Observation History
Time Wind Speed Temp Pressure Rel. Hum Rain
24/03:30am N 9-11 kts 24.6°c 1012.1 hPa 92% 0.0mm
24/03:00am N 8-9 kts 24.8°c 1012.2 hPa 91% 0.0mm
24/02:30am N 8-10 kts 24.8°c 1012.1 hPa 91% 0.0mm
24/02:00am N 7-8 kts 24.9°c 1011.9 hPa 91% 0.0mm
24/01:30am N 9-10 kts 24.9°c 1011.8 hPa 91% 0.0mm
24/01:00am N 8-9 kts 24.9°c 1012.2 hPa 90% 0.0mm
24/12:30am NNE 6-8 kts 25.2°c 1012.6 hPa 90% 0.0mm
24/12:00am SSE 3-5 kts 25.2°c 1013.2 hPa 90% 0.0mm
Time Wind Speed Temp Pressure Rel. Hum Rain
23/11:30pm N 1-4 kts 25.1°c 1013.3 hPa 88% 0.0mm
23/11:00pm N 5-7 kts 25.3°c 1012.6 hPa 86% 0.0mm
23/10:30pm N 6-8 kts 25.3°c 1012.6 hPa 85% 0.0mm
23/10:00pm N 9-11 kts 25.5°c 1012.5 hPa 87% 0.0mm
23/09:30pm N 7-9 kts 25.7°c 1012.1 hPa 84% 0.0mm
23/09:00pm NNW 6-9 kts 25.8°c 1012.0 hPa 83% 0.0mm
23/08:30pm N 9-11 kts 26.0°c 1011.8 hPa 82% 0.0mm
23/08:00pm N 9-12 kts 26.0°c 1011.6 hPa 79% 0.0mm
23/07:30pm N 5-7 kts 25.5°c 1011.2 hPa 82% 0.0mm
23/07:00pm N 11-14 kts 25.9°c 1010.8 hPa 87% 0.0mm
23/06:30pm N 15-18 kts 26.1°c 1010.4 hPa 86% 0.0mm
23/06:00pm N 15-18 kts 26.2°c 1010.6 hPa 85% 0.0mm
23/05:30pm N 17-20 kts 26.3°c 1010.1 hPa 86% 0.0mm
23/05:00pm N 18-20 kts 26.5°c 1010.1 hPa 85% 0.0mm
23/04:30pm NNE 19-24 kts 26.6°c 1010.1 hPa 84% 0.0mm
23/04:00pm NNE 19-24 kts 26.9°c 1010.3 hPa 82% 0.0mm
23/03:30pm NNE 20-24 kts 28.4°c 1010.3 hPa 76% 0.0mm
23/03:00pm NNE 19-22 kts 29.5°c 1010.7 hPa 74% 0.0mm
23/02:30pm NNE 20-23 kts 29.8°c 1011.0 hPa 74% 0.0mm
23/02:00pm NNE 19-23 kts 30.1°c 1011.4 hPa 73% 0.0mm
23/01:30pm NNE 18-22 kts 30.5°c 1011.7 hPa 72% 0.0mm
23/01:00pm NNE 19-23 kts 29.8°c 1012.0 hPa 73% 0.0mm
23/12:30pm NNE 19-22 kts 29.5°c 1012.4 hPa 74% 0.0mm
23/12:00pm NNE 18-20 kts 29.7°c 1013.0 hPa 76% 0.0mm
23/11:30am NE 17-19 kts 29.6°c 1013.4 hPa 78% 0.0mm
23/11:00am NE 13-16 kts 28.9°c 1013.8 hPa 78% 0.0mm
23/10:30am NNE 14-17 kts 29.8°c 1013.6 hPa 74% 0.0mm
23/10:00am NNE 10-13 kts 30.8°c 1013.9 hPa 71% 0.0mm
23/09:30am N 10-14 kts 29.1°c 1013.9 hPa 66% 0.0mm
23/09:00am N 10-14 kts 27.6°c 1014.2 hPa 74% 0.0mm
23/08:30am NNW 9-13 kts 26.8°c 1014.2 hPa 78% 0.0mm
23/08:00am NW 9-13 kts 26.5°c 1014.2 hPa 81% 0.0mm
23/07:30am NW 7-10 kts 26.3°c 1013.9 hPa 83% 0.0mm
23/07:00am NW 8-9 kts 25.6°c 1014.2 hPa 87% 0.0mm
23/06:30am NW 7-9 kts 25.3°c 1014.0 hPa 90% 0.0mm
23/06:00am NNW 6-7 kts 24.7°c 1013.9 hPa 93% 0.0mm
23/05:30am NW 5-7 kts 24.3°c 1013.7 hPa 94% 0.0mm
23/05:00am WNW 6 kts 24.2°c 1013.5 hPa 94% 0.0mm
23/04:30am NNW 7-8 kts 24.3°c 1013.2 hPa 94% 0.0mm
23/04:00am NNW 6-8 kts 24.1°c 1013.1 hPa 93% 0.0mm
23/03:30am NW 6-7 kts 24.3°c 1013.2 hPa 93% 0.0mm
23/03:00am NW 6-8 kts 24.4°c 1013.3 hPa 92% 0.0mm
23/02:30am NNW 6-7 kts 24.4°c 1013.5 hPa 91% 0.0mm
23/02:00am NW 6-7 kts 24.7°c 1013.9 hPa 91% 0.0mm
23/01:30am NW 7-9 kts 24.8°c 1014.3 hPa 90% 0.0mm
23/01:00am NW 7-8 kts 24.7°c 1014.5 hPa 92% 0.0mm
23/12:30am NNW 6-8 kts 24.5°c 1014.7 hPa 93% 0.0mm
23/12:00am NNW 7-9 kts 24.7°c 1014.9 hPa 92% 0.0mm
Time Wind Speed Temp Pressure Rel. Hum Rain
22/11:30pm N 8-13 kts 25.0°c 1015.6 hPa 91% 0.0mm
22/11:00pm N 9-11 kts 25.0°c 1015.8 hPa 91% 0.0mm
22/10:30pm N 6-8 kts 24.9°c 1016.5 hPa 90% 0.0mm
22/10:00pm N 6-7 kts 25.1°c 1016.8 hPa 88% 0.0mm
22/09:30pm NNW 5-7 kts 25.5°c 1017.0 hPa 88% 0.0mm
22/09:00pm NE 10-11 kts 25.6°c 1016.9 hPa 88% 0.0mm
22/08:30pm NE 10-12 kts 25.9°c 1016.8 hPa 89% 0.0mm
22/08:00pm ENE 8-10 kts 25.9°c 1016.8 hPa 89% 0.0mm
22/07:30pm ENE 8-9 kts 26.0°c 1016.6 hPa 88% 0.0mm
22/07:00pm ENE 7-8 kts 25.9°c 1016.5 hPa 85% 0.0mm
22/06:30pm ENE 7-8 kts 26.1°c 1016.2 hPa 85% 0.0mm
22/06:00pm ENE 8-9 kts 26.3°c 1016.0 hPa 84% 0.0mm
22/05:30pm NE 9-10 kts 26.6°c 1015.7 hPa 82% 0.0mm
22/05:00pm NE 10-13 kts 27.0°c 1015.4 hPa 80% 0.0mm
22/04:30pm NE 11-12 kts 27.7°c 1015.1 hPa 77% 0.0mm
22/04:00pm ENE 11-13 kts 28.0°c 1015.0 hPa 77% 0.0mm
22/03:30pm ENE 11-14 kts 28.5°c 1015.2 hPa 76% 0.0mm
22/03:00pm NE 11-13 kts 28.5°c 1015.3 hPa 77% 0.0mm
22/02:30pm ENE 10-13 kts 29.3°c 1015.5 hPa 75% 0.0mm
22/02:00pm ENE 10-12 kts 29.1°c 1015.7 hPa 74% 0.0mm
22/01:30pm ENE 10-12 kts 30.2°c 1016.1 hPa 71% 0.0mm
22/01:00pm ENE 9-10 kts 30.0°c 1016.4 hPa 70% 0.0mm
22/12:30pm ENE 8-9 kts 29.4°c 1016.7 hPa 71% 0.0mm
22/12:00pm E 8-9 kts 29.3°c 1017.1 hPa 71% 0.0mm
22/11:30am E 7-9 kts 29.3°c 1017.4 hPa 69% 0.0mm
22/11:00am E 7-8 kts 28.8°c 1017.6 hPa 71% 0.0mm
22/10:30am ESE 7-8 kts 29.9°c 1017.8 hPa 71% 0.0mm
22/10:00am ESE 7-8 kts 29.3°c 1017.8 hPa 73% 0.0mm
22/09:30am SE 7 kts 28.4°c 1017.8 hPa 75% 0.0mm
22/09:00am SE 6-7 kts 28.0°c 1017.7 hPa 75% 0.0mm
22/08:30am SSE 7 kts 28.6°c 1017.8 hPa 74% 0.0mm
22/08:00am SSE 6 kts 27.8°c 1017.7 hPa 75% 0.0mm
22/07:30am SSE 5-6 kts 27.2°c 1017.7 hPa 79% 0.0mm
22/07:00am S 5-6 kts 25.2°c 1017.5 hPa 83% 0.0mm
22/06:30am SSW 4-5 kts 23.8°c 1017.2 hPa 91% 0.0mm
22/06:00am SSW 5-6 kts 23.1°c 1016.9 hPa 92% 0.0mm
22/05:30am SW 5-6 kts 22.9°c 1016.8 hPa 92% 0.0mm
22/05:00am SW 6-7 kts 22.9°c 1016.6 hPa 92% 0.0mm
22/04:30am CALM 0-3 kts 23.2°c 1016.5 hPa 90% 0.0mm
22/04:00am ENE 6 kts 24.2°c 1016.2 hPa 90% 0.0mm
22/03:30am ENE 7-8 kts 24.4°c 1016.1 hPa 90% 0.0mm
22/03:00am ENE 7-8 kts 24.3°c 1016.3 hPa 89% 0.0mm
22/02:30am ENE 6-7 kts 24.3°c 1016.5 hPa 88% 0.0mm
22/02:00am E 4-5 kts 24.3°c 1016.7 hPa 88% 0.0mm
22/01:30am E 5-6 kts 24.3°c 1016.9 hPa 87% 0.0mm
22/01:00am E 5-6 kts 24.4°c 1017.0 hPa 87% 0.0mm
22/12:30am E 6-7 kts 24.4°c 1017.2 hPa 86% 0.0mm
22/12:00am E 5-6 kts 24.6°c 1017.6 hPa 87% 0.0mm